Wetterstats.de || Aktuelle Messwerte || Aktuelle Wetterkarten NEU! || Radar / Satellit NEU! || Wetterarchiv || Langzeitwerte NEU! || Klim. Kenntage || Met. Ereignisse || Agrarwerte || Echtzeitwerte

Monatsübersicht für Oktober 2020 Diagramm
 
Wetter Information zur Wetteranzeige
Zeitraffer
Tageslänge (hh:mm)
Höchsttemperatur in °C
Uhrzeit
Tiefsttemperatur in °C
Uhrzeit
Luftfeuchte (max., in %)
Uhrzeit
Luftfeuchte (min., in %)
Uhrzeit
Luftdruck (max., in hPa)
Uhrzeit
Luftdruck (min., in hPa)
Uhrzeit
Luftdruck (Ø, in hPa)
Regenrate (max, mm/h)
Uhrzeit
Niederschlag in mm
Verdunstung in mm
Solar in W/m² (Ø)
Solar in W/m² (max.)
UV-Index (max.)
Sonnenscheindauer (hh:mm)
Windrichtung (Ø)
Windstärke (Ø in km/h)
Windstärke (Ø in bft)
Windböe (max., in km/h)
Uhrzeit
Windböe (max., in bft)
Uhrzeit
Taupunkt (max., in °C)
Uhrzeit
Taupunkt (min., in °C)
Uhrzeit
Windchill (min., in °C)
Uhrzeit
Gewitterindex (max.)
Uhrzeit
Waldbrandindex (max.)
Uhrzeit
Graslandfeuerindex (max.)
Uhrzeit
Staubsturm-Index (max.)
Uhrzeit
01
Zeitraffer
11:39
14.8
15:50 Uhr
7.8
02:25 Uhr

98
03:00 Uhr
90
14:40 Uhr
1013.8
00:00 Uhr

1003.9
23:55 Uhr
1008.2
2,400
04:05 Uhr
0,200
0.787
144
397
11:20 Uhr
2.0
13:00 Uhr

01:05:00
2,8
1
12,9
04:15 Uhr

2
13.2
15:50 Uhr
7.3
02:40 Uhr
7.8
02:25 Uhr
2
18:05 Uhr

00:00 Uhr

00:00 Uhr

00:00 Uhr
02
Zeitraffer
11:34
16.0
15:50 Uhr
12.7
04:55 Uhr

98
02:45 Uhr
84
15:45 Uhr
1004.0
00:00 Uhr

1000.7
23:55 Uhr
1002.8
2,400
00:30 Uhr
3,000
0.813
98
297
12:00 Uhr
1.6
12:00 Uhr

00:15:00
7,5
2
25,7
11:10 Uhr

4
13.8
12:00 Uhr
11.7
20:20 Uhr
10.0
22:20 Uhr
3
00:00 Uhr

00:00 Uhr

00:00 Uhr

00:00 Uhr
03
Zeitraffer
11:30
21.9
15:20 Uhr
12.4
00:40 Uhr

96
06:45 Uhr
69
15:30 Uhr
1000.6
00:10 Uhr

992.7
18:05 Uhr
995.8
0,000
00:00 Uhr
0,000
2.184
254
540
12:40 Uhr
2.6
12:40 Uhr

07:50:00
9,3
2
30,6
14:40 Uhr

5
16.3
15:35 Uhr
11.7
00:35 Uhr
10.3
00:00 Uhr
5
16:05 Uhr

00:00 Uhr

00:00 Uhr

00:00 Uhr
04
Zeitraffer
11:27
18.9
14:25 Uhr
8.3
23:15 Uhr

98
08:40 Uhr
51
16:45 Uhr
1006.1
23:20 Uhr

993.5
03:00 Uhr
998.9
4,800
03:40 Uhr
4,400
1.727
221
599
13:20 Uhr
2.4
12:55 Uhr

04:35:00
5,3
1
32,2
16:45 Uhr

5
14.7
00:15 Uhr
6.3
22:00 Uhr
8.3
23:15 Uhr
6
00:00 Uhr

00:00 Uhr

00:00 Uhr

00:00 Uhr
05
Zeitraffer
11:22
16.7
13:40 Uhr
6.1
05:25 Uhr

97
06:30 Uhr
78
14:35 Uhr
1006.8
01:20 Uhr

1002.9
14:35 Uhr
1004.7
2,400
17:50 Uhr
0,200
1.270
186
531
10:50 Uhr
2.0
13:30 Uhr

03:10:00
5,4
1
27,4
16:45 Uhr

4
13.5
11:00 Uhr
5.3
04:30 Uhr
6.1
05:25 Uhr
0
00:00 Uhr

00:00 Uhr

00:00 Uhr

00:00 Uhr
06
Zeitraffer
11:18
15.8
13:25 Uhr
9.1
05:00 Uhr

92
00:00 Uhr
74
11:10 Uhr
1005.3
00:30 Uhr

1002.8
23:40 Uhr
1004.4
0,000
00:00 Uhr
0,000
1.448
175
594
14:00 Uhr
2.0
14:00 Uhr

03:15:00
8,6
2
33,8
10:20 Uhr

5
12.5
14:15 Uhr
7.7
05:00 Uhr
6.2
05:45 Uhr
0
00:00 Uhr

00:00 Uhr

00:00 Uhr

00:00 Uhr
07
Zeitraffer
11:14
16.3
15:05 Uhr
10.5
23:30 Uhr

94
18:50 Uhr
75
12:50 Uhr
1015.0
23:50 Uhr

1002.8
00:30 Uhr
1008.0
4,800
17:25 Uhr
1,400
1.346
162
587
12:40 Uhr
2.5
12:40 Uhr

02:55:00
7,3
2
27,4
14:55 Uhr

4
12.6
16:10 Uhr
9.3
07:05 Uhr
8.3
21:10 Uhr
2
16:05 Uhr

00:00 Uhr

00:00 Uhr

00:00 Uhr
08
Zeitraffer
11:10
15.3
13:20 Uhr
8.6
06:40 Uhr

96
06:50 Uhr
70
13:40 Uhr
1019.1
08:50 Uhr

1014.0
23:20 Uhr
1016.6
4,800
18:55 Uhr
1,400
1.448
192
563
13:10 Uhr
2.4
13:10 Uhr

04:05:00
8,7
2
35,4
23:50 Uhr

5
11.9
22:30 Uhr
7.8
06:45 Uhr
7.6
00:25 Uhr
0
00:00 Uhr

00:00 Uhr

00:00 Uhr

00:00 Uhr
09
Zeitraffer
11:06
15.4
14:55 Uhr
11.1
07:55 Uhr

97
23:10 Uhr
76
12:50 Uhr
1019.7
12:25 Uhr

1013.5
01:25 Uhr
1017.0
2,400
00:05 Uhr
3,600
1.219
179
503
12:10 Uhr
2.5
12:10 Uhr

03:30:00
6,7
1
35,4
00:00 Uhr

5
12.9
05:10 Uhr
10.0
07:55 Uhr
9.6
00:00 Uhr
3
05:05 Uhr

00:00 Uhr

00:00 Uhr

00:00 Uhr
10
Zeitraffer
11:02
13.6
01:20 Uhr
6.4
23:30 Uhr

97
00:00 Uhr
75
13:40 Uhr
1019.6
20:55 Uhr

1014.8
03:50 Uhr
1017.2
2,400
01:50 Uhr
0,200
0.889
127
378
11:45 Uhr
1.7
13:05 Uhr

01:40:00
6,4
1
25,7
13:40 Uhr

4
13.1
01:20 Uhr
5.0
23:35 Uhr
5.4
23:50 Uhr
3
01:05 Uhr

00:00 Uhr

00:00 Uhr

00:00 Uhr
11
Zeitraffer
10:57
11.9
13:10 Uhr
3.4
07:40 Uhr

96
08:05 Uhr
73
13:15 Uhr
1019.5
00:00 Uhr

1018.2
13:15 Uhr
1018.8
2,400
02:50 Uhr
0,200
1.168
188
664
11:35 Uhr
2.0
12:40 Uhr

03:55:00
5,3
1
24,1
12:30 Uhr

4
7.5
13:00 Uhr
2.7
07:40 Uhr
3.4
07:40 Uhr
0
00:00 Uhr

00:00 Uhr

00:00 Uhr

00:00 Uhr
12
Zeitraffer
10:54
11.3
13:55 Uhr
4.1
23:35 Uhr

96
20:55 Uhr
84
12:35 Uhr
1018.9
00:15 Uhr

1016.6
15:20 Uhr
1017.6
2,400
10:00 Uhr
0,200
0.737
145
587
10:45 Uhr
1.6
12:15 Uhr

02:40:00
3,7
1
19,3
10:50 Uhr

3
9.3
13:30 Uhr
3.5
23:35 Uhr
4.1
23:35 Uhr
0
00:00 Uhr

00:00 Uhr

00:00 Uhr

00:00 Uhr
13
Zeitraffer
10:50
10.7
15:50 Uhr
0.5
07:30 Uhr

97
05:05 Uhr
87
23:15 Uhr
1017.1
00:15 Uhr

1011.2
23:55 Uhr
1015.1
2,400
02:50 Uhr
0,200
0.864
148
281
10:35 Uhr
1.2
12:40 Uhr

01:40:00
4,5
1
29,0
23:45 Uhr

4
9.1
15:25 Uhr
-0.1
07:30 Uhr
0.5
07:30 Uhr
0
00:00 Uhr

00:00 Uhr

00:00 Uhr

00:00 Uhr
14
Zeitraffer
10:46
10.3
00:00 Uhr
8.4
06:40 Uhr

98
20:50 Uhr
87
00:00 Uhr
1011.2
00:00 Uhr

1004.8
12:45 Uhr
1006.9
4,800
04:15 Uhr
27,000
0.432
32
58
12:00 Uhr
0.0
00:00 Uhr

00:00:00
12,4
2
51,5
06:30 Uhr

6
9.6
20:50 Uhr
6.9
06:40 Uhr
0.5
06:30 Uhr
0
00:00 Uhr

00:00 Uhr

00:00 Uhr

00:00 Uhr
15
Zeitraffer
10:42
11.9
13:15 Uhr
9.8
05:20 Uhr

98
05:35 Uhr
91
13:35 Uhr
1018.4
23:55 Uhr

1009.5
00:00 Uhr
1014.1
2,400
00:35 Uhr
3,400
0.356
63
221
11:35 Uhr
1.0
11:35 Uhr

00:00:00
7,4
2
27,4
03:25 Uhr

4
10.7
13:20 Uhr
9.1
23:40 Uhr
7.4
03:25 Uhr
0
00:00 Uhr

00:00 Uhr

00:00 Uhr

00:00 Uhr


 
Wetter Information zur Wetteranzeige
Zeitraffer
Tageslänge (hh:mm)
Höchsttemperatur in °C
Uhrzeit
Tiefsttemperatur in °C
Uhrzeit
Luftfeuchte (max., in %)
Uhrzeit
Luftfeuchte (min., in %)
Uhrzeit
Luftdruck (max., in hPa)
Uhrzeit
Luftdruck (min., in hPa)
Uhrzeit
Luftdruck (Ø, in hPa)
Regenrate (max, mm/h)
Uhrzeit
Niederschlag in mm
Verdunstung in mm
Solar in W/m² (Ø)
Solar in W/m² (max.)
UV-Index (max.)
Sonnenscheindauer (hh:mm)
Windrichtung (Ø)
Windstärke (Ø in km/h)
Windstärke (Ø in bft)
Windböe (max., in km/h)
Uhrzeit
Windböe (max., in bft)
Uhrzeit
Taupunkt (max., in °C)
Uhrzeit
Taupunkt (min., in °C)
Uhrzeit
Windchill (min., in °C)
Uhrzeit
Gewitterindex (max.)
Uhrzeit
Waldbrandindex (max.)
Uhrzeit
Graslandfeuerindex (max.)
Uhrzeit
Staubsturm-Index (max.)
Uhrzeit
16
Zeitraffer
10:38
11.9
12:25 Uhr
8.1
07:25 Uhr

95
19:35 Uhr
82
12:50 Uhr
1019.7
11:45 Uhr

1018.3
00:00 Uhr
1018.9
2,400
18:20 Uhr
0,200
0.737
127
598
13:40 Uhr
1.7
13:40 Uhr

01:10:00
6,8
1
22,5
00:15 Uhr

4
9.7
13:50 Uhr
7.1
07:00 Uhr
6.9
03:35 Uhr
0
00:00 Uhr

00:00 Uhr

00:00 Uhr

00:00 Uhr
17
Zeitraffer
10:34
11.1
15:00 Uhr
6.8
08:00 Uhr

97
04:45 Uhr
67
14:50 Uhr
1019.2
09:45 Uhr

1017.3
23:55 Uhr
1018.4
2,400
21:55 Uhr
0,400
0.991
185
603
12:15 Uhr
1.8
12:10 Uhr

03:05:00
3,9
1
19,3
13:50 Uhr

3
7.6
00:00 Uhr
4.8
15:15 Uhr
6.7
11:05 Uhr
0
00:00 Uhr

00:00 Uhr

00:00 Uhr

00:00 Uhr
18
Zeitraffer
10:30
10.2
12:35 Uhr
6.4
23:30 Uhr

95
20:40 Uhr
82
12:30 Uhr
1019.8
22:40 Uhr

1016.0
07:15 Uhr
1017.3
4,800
16:10 Uhr
1,000
0.584
89
287
12:45 Uhr
1.2
11:50 Uhr

00:15:00
9,8
2
37,0
12:10 Uhr

5
8.0
15:10 Uhr
5.6
06:05 Uhr
2.1
09:00 Uhr
0
00:00 Uhr

00:00 Uhr

00:00 Uhr

00:00 Uhr
19
Zeitraffer
10:26
11.9
12:40 Uhr
5.7
22:40 Uhr

96
00:15 Uhr
74
12:40 Uhr
1023.4
18:50 Uhr

1019.8
00:10 Uhr
1022.3
0,000
00:00 Uhr
0,000
0.838
155
568
12:40 Uhr
1.7
12:15 Uhr

02:35:00
5,8
1
24,1
10:25 Uhr

4
8.1
11:05 Uhr
4.8
22:30 Uhr
3.8
00:10 Uhr
0
00:00 Uhr

00:00 Uhr

00:00 Uhr

00:00 Uhr
20
Zeitraffer
10:22
12.1
16:00 Uhr
4.3
04:55 Uhr

97
04:55 Uhr
78
14:25 Uhr
1023.1
00:00 Uhr

1013.2
20:50 Uhr
1017.7
2,400
05:20 Uhr
0,200
0.965
148
334
13:55 Uhr
1.2
12:45 Uhr

02:30:00
7,8
2
33,8
21:35 Uhr

5
8.5
15:40 Uhr
3.8
07:45 Uhr
1.7
08:25 Uhr
0
00:00 Uhr

00:00 Uhr

00:00 Uhr

00:00 Uhr
21
Zeitraffer
10:19
15.2
15:55 Uhr
10.3
07:50 Uhr

90
09:10 Uhr
74
15:55 Uhr
1013.4
00:00 Uhr

1008.6
20:30 Uhr
1011.0
2,400
15:45 Uhr
0,200
0.991
111
290
15:50 Uhr
1.2
12:45 Uhr

00:35:00
7,6
2
32,2
23:30 Uhr

5
10.7
15:50 Uhr
7.8
00:00 Uhr
8.0
03:05 Uhr
0
00:00 Uhr

00:00 Uhr

00:00 Uhr

00:00 Uhr
22
Zeitraffer
10:14
20.2
13:40 Uhr
12.5
00:50 Uhr

92
19:40 Uhr
70
13:35 Uhr
1014.5
12:05 Uhr

1009.6
00:00 Uhr
1012.4
0,000
00:00 Uhr
0,000
1.600
171
476
11:40 Uhr
1.8
11:40 Uhr

03:50:00
8,3
2
38,6
02:30 Uhr

5
14.6
13:30 Uhr
8.6
00:05 Uhr
9.8
02:10 Uhr
2
13:05 Uhr

00:00 Uhr

00:00 Uhr

00:00 Uhr
23
Zeitraffer
10:10
16.6
13:35 Uhr
11.7
07:00 Uhr

95
21:10 Uhr
85
00:00 Uhr
1013.4
09:00 Uhr

1009.3
20:55 Uhr
1011.9
7,200
17:30 Uhr
2,600
0.584
95
218
13:40 Uhr
1.1
13:35 Uhr

00:00:00
4,4
1
24,1
21:50 Uhr

4
14.3
13:30 Uhr
10.5
07:00 Uhr
11.2
21:55 Uhr
3
22:05 Uhr

00:00 Uhr

00:00 Uhr

00:00 Uhr
24
Zeitraffer
10:06
16.8
13:55 Uhr
9.8
02:30 Uhr

97
06:40 Uhr
74
14:10 Uhr
1014.5
12:35 Uhr

1011.1
00:00 Uhr
1013.4
2,400
03:45 Uhr
0,200
1.245
194
506
12:55 Uhr
1.6
12:20 Uhr

05:10:00
6,4
1
32,2
12:45 Uhr

5
13.1
11:35 Uhr
8.8
02:25 Uhr
8.6
07:45 Uhr
2
00:00 Uhr

00:00 Uhr

00:00 Uhr

00:00 Uhr
25
Zeitraffer
10:02
17.8
12:25 Uhr
7.4
06:25 Uhr

96
06:35 Uhr
66
13:25 Uhr
1013.9
00:00 Uhr

1005.8
22:50 Uhr
1009.8
2,400
06:15 Uhr
0,200
1.549
216
489
11:30 Uhr
1.7
11:30 Uhr

07:10:00
7,4
2
35,4
11:35 Uhr

5
12.4
12:20 Uhr
6.7
06:25 Uhr
6.3
06:50 Uhr
0
00:00 Uhr

00:00 Uhr

00:00 Uhr

00:00 Uhr
26
Zeitraffer
09:59
13.3
14:00 Uhr
8.2
04:10 Uhr

96
04:30 Uhr
86
13:40 Uhr
1006.5
23:35 Uhr

1002.7
14:05 Uhr
1004.6
0,000
00:00 Uhr
0,000
0.508
99
318
13:25 Uhr
0.9
12:15 Uhr

01:25:00
4,6
1
24,1
21:25 Uhr

4
11.2
14:35 Uhr
7.5
04:10 Uhr
7.7
00:40 Uhr
0
00:00 Uhr

00:00 Uhr

00:00 Uhr

00:00 Uhr
27
Zeitraffer
09:55
12.8
13:15 Uhr
8.0
21:40 Uhr

93
00:00 Uhr
75
13:15 Uhr
1011.6
21:15 Uhr

1006.4
00:00 Uhr
1009.6
0,000
00:00 Uhr
0,000
0.914
123
418
13:10 Uhr
1.2
11:00 Uhr

02:20:00
6,7
1
29,0
10:55 Uhr

4
9.6
00:00 Uhr
5.5
23:10 Uhr
4.5
23:35 Uhr
0
00:00 Uhr

00:00 Uhr

00:00 Uhr

00:00 Uhr
28
Zeitraffer
09:51
13.6
14:40 Uhr
7.0
06:35 Uhr

92
21:00 Uhr
77
13:20 Uhr
1012.1
18:25 Uhr

1009.6
05:50 Uhr
1011.1
0,000
00:00 Uhr
0,000
0.965
119
276
14:40 Uhr
1.1
11:30 Uhr

01:35:00
8,4
2
32,2
07:30 Uhr

5
9.8
14:40 Uhr
4.9
04:55 Uhr
3.5
03:35 Uhr
0
00:00 Uhr

00:00 Uhr

00:00 Uhr

00:00 Uhr
29
Zeitraffer
09:47
13.0
12:05 Uhr
7.7
23:55 Uhr

93
07:50 Uhr
69
13:25 Uhr
1017.8
22:55 Uhr

1009.2
06:35 Uhr
1013.0
4,800
06:25 Uhr
1,600
1.321
175
534
12:00 Uhr
1.4
11:10 Uhr

03:50:00
9,3
2
41,8
14:20 Uhr

6
9.1
09:20 Uhr
5.2
23:55 Uhr
5.8
02:50 Uhr
0
00:00 Uhr

00:00 Uhr

00:00 Uhr

00:00 Uhr
30
Zeitraffer
09:43
13.4
20:35 Uhr
6.1
02:10 Uhr

98
13:05 Uhr
85
00:00 Uhr
1019.3
23:45 Uhr

1014.5
13:45 Uhr
1016.5
4,800
10:30 Uhr
10,400
0.229
48
127
13:00 Uhr
0.6
13:00 Uhr

00:00:00
7,2
2
30,6
13:50 Uhr

5
13.0
22:00 Uhr
4.3
02:05 Uhr
5.7
06:55 Uhr
0
00:00 Uhr

00:00 Uhr

00:00 Uhr

00:00 Uhr
31
Zeitraffer
09:40
14.9
12:55 Uhr
12.5
23:55 Uhr

98
01:30 Uhr
94
12:50 Uhr
1022.8
09:30 Uhr

1018.6
23:25 Uhr
1021.1
2,400
00:00 Uhr
3,000
0.330
65
288
12:20 Uhr
1.0
12:20 Uhr

00:15:00
4,7
1
29,0
23:55 Uhr

4
14.1
12:25 Uhr
12.0
23:55 Uhr
9.1
22:55 Uhr
3
00:00 Uhr

00:00 Uhr

00:00 Uhr

00:00 Uhr
Stationsstandorte || Wetterblog || Wissenswertes || Downloads || Seitenhistorie || Partner || Impressum / Datenschutz